Dexter, NY

5:58 AM EST on January 19, 2017 (GMT -0500)
Watertown International

Weather History for KART - October, 2013

Change the Weather History Date:

Tuesday, October 22, 2013

  Actual Average Record
Temperature  
Mean Temperature 50 °F 46 °F  
Max Temperature 55 °F 56 °F 84 °F (1979)
Min Temperature 45 °F 37 °F 23 °F (1982)
Degree Days  
Heating Degree Days 15 19  
Month to date heating degree days 192 341  
Since 1 July heating degree days 466 615  
Cooling Degree Days 0 0  
Month to date cooling degree days 0 0  
Year to date cooling degree days 481 359  
Moisture  
Dew Point 42 °F    
Average Humidity 70    
Maximum Humidity 89    
Minimum Humidity 50    
Precipitation  
Precipitation 0.50 in 0.11 in 1.35 in (1988)
Month to date precipitation 3.02 2.64  
Year to date precipitation 27.64 28.16  
Sea Level Pressure  
Sea Level Pressure 29.76 in    
Wind  
Wind Speed 14 mph (WSW)    
Max Wind Speed 28 mph    
Max Gust Speed 36 mph    
Visibility 8 miles    
Events Rain    
T = Trace of Precipitation, MM = Missing Value Source: NWS Daily Summary

Daily Weather History Graph

Daily Weather History Graph

Search for Another Location

Airport or City:

Trip Planner

Search our weather history database for the weather conditions in past years. The results will help you decide how hot, cold, wet, or windy it might be!

Date:

Astronomy

Oct. 22, 2013 Rise Set
Actual Time 7:27 AM EDT 6:08 PM EDT
Civil Twilight 6:58 AM EDT 6:37 PM EDT
Nautical Twilight 6:24 AM EDT 7:11 PM EDT
Astronomical Twilight 5:51 AM EDT 7:44 PM EDT
Moon 8:41 PM EDT (10/22) 10:59 AM EDT (10/22)
Length of Visible Light 11h 39m
Length of Day
10h 40m
Waning Gibbous, 87% of the Moon is Illuminated
Oct 22
Waning Gibbous
Oct 26
Last Quarter
Nov 3
New
Nov 10
First Quarter
Nov 17
Full

Hourly Weather History & Observations

Time (EDT) Temp. Windchill Dew Point Humidity Pressure Visibility Wind Dir Wind Speed Gust Speed Precip Events Conditions
12:56 AM 55.0 °F - 48.0 °F 77% 29.77 in 10.0 mi West 4.6 mph - N/A   Mostly Cloudy
1:56 AM 54.0 °F - 46.9 °F 77% 29.78 in 10.0 mi West 16.1 mph 23.0 mph 0.00 in Rain Light Rain
2:56 AM 52.0 °F - 48.9 °F 89% 29.76 in 10.0 mi West 5.8 mph - 0.03 in Rain Light Rain
3:03 AM 51.8 °F - 48.2 °F 88% 29.76 in 7.0 mi WSW 3.5 mph - 0.00 in Rain Light Rain
3:14 AM 51.8 °F - 50.0 °F 94% 29.76 in 7.0 mi Calm Calm - 0.01 in Rain Light Rain
3:39 AM 51.8 °F - 50.0 °F 94% 29.75 in 8.0 mi SW 6.9 mph - 0.04 in Rain Light Rain
3:56 AM 53.1 °F - 48.9 °F 86% 29.74 in 7.0 mi SW 10.4 mph - 0.06 in Rain Light Rain
4:46 AM 51.8 °F - 48.2 °F 88% 29.73 in 8.0 mi SSW 8.1 mph - 0.03 in Rain Light Rain
4:56 AM 52.0 °F - 48.9 °F 89% 29.73 in 10.0 mi SSW 10.4 mph - 0.03 in Rain Light Rain
5:56 AM 52.0 °F - 48.9 °F 89% 29.70 in 8.0 mi South 5.8 mph - 0.04 in Rain Light Rain
6:39 AM 51.8 °F - 50.0 °F 94% 29.70 in 4.0 mi West 9.2 mph - 0.07 in Rain Rain
6:43 AM 51.8 °F - 48.2 °F 88% 29.71 in 1.8 mi WSW 11.5 mph 18.4 mph 0.16 in Rain Heavy Rain
6:54 AM 51.8 °F - 48.2 °F 88% 29.70 in 3.0 mi SW 9.2 mph - 0.20 in Rain Rain
6:56 AM 51.1 °F - 48.9 °F 92% 29.70 in 4.0 mi SW 6.9 mph - 0.20 in Rain Light Rain
6:58 AM 51.8 °F - 48.2 °F 88% 29.71 in 4.0 mi SW 6.9 mph - 0.01 in Rain Light Rain
7:17 AM 50.0 °F - 46.4 °F 87% 29.71 in 4.0 mi WSW 6.9 mph - 0.08 in Rain Rain
7:26 AM 50.0 °F - 46.4 °F 87% 29.72 in 7.0 mi WSW 6.9 mph - 0.09 in Rain Light Rain
7:56 AM 50.0 °F - 44.1 °F 80% 29.73 in 9.0 mi West 15.0 mph - 0.09 in Rain Light Rain
8:30 AM 46.4 °F 39.5 °F 39.2 °F 76% 29.76 in 10.0 mi West 17.3 mph 26.5 mph 0.04 in   Overcast
8:56 AM 46.0 °F 41.0 °F 37.9 °F 73% 29.77 in 8.0 mi West 10.4 mph 20.7 mph 0.05 in Rain Light Rain
9:56 AM 48.0 °F - 39.0 °F 71% 29.77 in 10.0 mi West 9.2 mph 17.3 mph 0.00 in   Overcast
10:56 AM 48.9 °F - 39.0 °F 69% 29.77 in 10.0 mi West 21.9 mph 31.1 mph N/A   Overcast
11:56 AM 48.9 °F - 37.0 °F 64% 29.77 in 10.0 mi West 18.4 mph 27.6 mph N/A   Overcast
12:56 PM 48.9 °F - 33.1 °F 54% 29.78 in 10.0 mi WSW 20.7 mph 33.4 mph N/A   Mostly Cloudy
1:56 PM 48.0 °F - 33.1 °F 56% 29.78 in 10.0 mi WSW 23.0 mph 32.2 mph N/A   Mostly Cloudy
2:56 PM 48.0 °F - 33.1 °F 56% 29.78 in 10.0 mi WSW 21.9 mph 31.1 mph N/A   Overcast
3:56 PM 48.0 °F - 34.0 °F 58% 29.78 in 10.0 mi West 20.7 mph 27.6 mph N/A   Overcast
4:56 PM 48.0 °F - 35.1 °F 61% 29.79 in 10.0 mi WSW 18.4 mph 28.8 mph N/A   Overcast
5:56 PM 46.9 °F - 35.1 °F 63% 29.79 in 10.0 mi West 13.8 mph - N/A   Overcast
6:56 PM 46.9 °F - 35.1 °F 63% 29.80 in 10.0 mi West 15.0 mph 23.0 mph N/A   Mostly Cloudy
7:56 PM 48.9 °F - 32.0 °F 52% 29.79 in 10.0 mi West 15.0 mph 24.2 mph N/A   Overcast
8:56 PM 48.0 °F - 32.0 °F 54% 29.79 in 10.0 mi WSW 15.0 mph 23.0 mph N/A   Scattered Clouds
9:56 PM 46.0 °F 41.0 °F 36.0 °F 68% 29.80 in 10.0 mi SSW 10.4 mph 16.1 mph N/A   Overcast
10:56 PM 48.0 °F - 30.9 °F 52% 29.79 in 10.0 mi West 13.8 mph 21.9 mph N/A   Overcast
11:56 PM 46.9 °F - 36.0 °F 66% 29.78 in 10.0 mi WSW 11.5 mph 18.4 mph 0.00 in   Overcast